Location: Crocus Hill
(18.2167°N, 63.0667°W)
Time: 18:03:02
(UTC+00:00)

Cosmos 1758 Rocket - Pass Details

Date: 26 January 2020
Orbit: 603 x 635 km, 82.5° (Epoch: 23 February)

Event Time Altitude Azimuth Distance (km) Brightness Sun altitude
Exits shadow 09:37:11 13° 340° (NNW) 1,807 5.6 -16.6°
Maximum altitude 09:40:59 50° 267° (W) 797 3.7 -15.7°
Drops below altitude 10° 09:45:17 10° 192° (SSW) 2,003 6.2 -14.7°
Sets 09:47:34 0° 187° (S) 2,912 7.1 -14.2°
